TimeCDT,TemperatureF,Dew PointF,Humidity,Sea Level PressureIn,VisibilityMPH,Wind Direction,Wind SpeedMPH,Gust SpeedMPH,PrecipitationIn,Events,Conditions,WindDirDegrees,DateUTC
12:15 AM,59.9,31.5,34,29.89,10.0,South,9.2,17.3,N/A,,Mostly Cloudy,180,2013-05-14 05:15:00
12:35 AM,59.2,32.0,36,29.88,10.0,South,12.7,18.4,N/A,,Scattered Clouds,180,2013-05-14 05:35:00
12:55 AM,59.0,32.5,37,29.86,10.0,South,11.5,-,N/A,,Scattered Clouds,180,2013-05-14 05:55:00
1:15 AM,59.0,32.7,37,29.85,10.0,South,9.2,-,N/A,,Mostly Cloudy,180,2013-05-14 06:15:00
1:35 AM,58.3,33.8,40,29.84,10.0,South,10.4,-,N/A,,Scattered Clouds,190,2013-05-14 06:35:00
1:55 AM,58.5,34.3,40,29.83,10.0,South,12.7,-,N/A,,Scattered Clouds,190,2013-05-14 06:55:00
2:15 AM,58.6,34.9,41,29.82,10.0,SSW,12.7,-,N/A,,Overcast,200,2013-05-14 07:15:00
2:35 AM,59.0,34.9,40,29.80,10.0,SSW,15.0,21.9,N/A,,Scattered Clouds,200,2013-05-14 07:35:00
2:55 AM,59.0,35.1,41,29.79,10.0,SSW,16.1,23.0,N/A,,Scattered Clouds,210,2013-05-14 07:55:00
3:15 AM,58.5,35.1,42,29.78,10.0,SSW,15.0,21.9,N/A,,Scattered Clouds,200,2013-05-14 08:15:00
3:35 AM,58.5,35.1,42,29.77,10.0,SSW,12.7,20.7,N/A,,Clear,210,2013-05-14 08:35:00
3:55 AM,58.3,35.4,42,29.76,10.0,SSW,13.8,20.7,N/A,,Clear,210,2013-05-14 08:55:00
4:15 AM,57.9,36.3,44,29.75,10.0,SSW,11.5,17.3,N/A,,Clear,210,2013-05-14 09:15:00
4:35 AM,57.7,36.7,45,29.76,10.0,SW,11.5,-,N/A,,Clear,220,2013-05-14 09:35:00
4:55 AM,57.2,37.4,48,29.75,10.0,SSW,11.5,18.4,N/A,,Clear,210,2013-05-14 09:55:00
5:15 AM,57.2,37.9,49,29.74,10.0,SW,11.5,19.6,N/A,,Clear,220,2013-05-14 10:15:00
5:35 AM,56.8,38.7,51,29.74,10.0,SSW,10.4,16.1,N/A,,Clear,210,2013-05-14 10:35:00
5:55 AM,57.2,39.4,51,29.74,10.0,SSW,10.4,18.4,N/A,,Clear,210,2013-05-14 10:55:00
6:15 AM,57.2,40.1,53,29.74,10.0,SW,9.2,-,N/A,,Clear,220,2013-05-14 11:15:00
6:35 AM,57.6,40.6,53,29.74,10.0,SW,8.1,-,N/A,,Clear,220,2013-05-14 11:35:00
6:55 AM,58.3,41.5,54,29.75,10.0,SW,5.8,-,N/A,,Clear,230,2013-05-14 11:55:00
7:15 AM,59.2,42.6,54,29.75,10.0,SW,9.2,-,N/A,,Clear,230,2013-05-14 12:15:00
7:35 AM,60.1,43.7,55,29.74,10.0,SW,9.2,-,N/A,,Clear,230,2013-05-14 12:35:00
7:55 AM,61.7,45.1,55,29.74,10.0,WSW,10.4,-,N/A,,Clear,250,2013-05-14 12:55:00
8:15 AM,63.7,46.0,53,29.74,10.0,West,10.4,-,N/A,,Clear,260,2013-05-14 13:15:00
8:35 AM,65.3,47.1,52,29.74,10.0,West,11.5,-,N/A,,Clear,260,2013-05-14 13:35:00
8:55 AM,67.5,48.2,50,29.73,10.0,WSW,10.4,-,N/A,,Clear,250,2013-05-14 13:55:00
9:15 AM,69.3,48.4,47,29.73,10.0,WSW,9.2,16.1,N/A,,Clear,240,2013-05-14 14:15:00
9:35 AM,70.3,48.4,46,29.72,10.0,West,8.1,-,N/A,,Clear,260,2013-05-14 14:35:00
9:55 AM,72.0,49.6,45,29.72,10.0,West,6.9,-,N/A,,Clear,270,2013-05-14 14:55:00
10:15 AM,73.2,49.6,43,29.73,10.0,West,5.8,-,N/A,,Clear,260,2013-05-14 15:15:00
10:35 AM,74.7,49.8,42,29.73,10.0,WSW,4.6,-,N/A,,Clear,240,2013-05-14 15:35:00
10:55 AM,76.1,50.0,40,29.74,10.0,West,6.9,-,N/A,,Clear,260,2013-05-14 15:55:00
11:15 AM,77.5,48.7,36,29.75,10.0,WNW,4.6,-,N/A,,Clear,300,2013-05-14 16:15:00
11:35 AM,79.0,47.8,33,29.76,10.0,WNW,6.9,-,N/A,,Clear,290,2013-05-14 16:35:00
11:55 AM,79.9,47.8,32,29.75,10.0,WSW,3.5,-,N/A,,Clear,240,2013-05-14 16:55:00
12:15 PM,81.5,47.1,30,29.75,10.0,West,4.6,-,N/A,,Clear,260,2013-05-14 17:15:00
12:35 PM,82.6,45.5,27,29.74,10.0,West,4.6,-,N/A,,Clear,280,2013-05-14 17:35:00
12:55 PM,84.0,42.4,23,29.74,10.0,West,4.6,-,N/A,,Clear,260,2013-05-14 17:55:00
1:15 PM,85.1,43.5,23,29.74,10.0,NW,3.5,-,N/A,,Clear,310,2013-05-14 18:15:00
1:35 PM,86.5,42.8,22,29.74,10.0,NW,4.6,-,N/A,,Clear,310,2013-05-14 18:35:00
1:55 PM,87.1,43.2,21,29.74,10.0,West,4.6,-,N/A,,Clear,270,2013-05-14 18:55:00
2:15 PM,86.5,41.0,20,29.74,10.0,Calm,Calm,-,N/A,,Clear,0,2013-05-14 19:15:00
2:55 PM,-9999,-9999,N/A,29.73,10.0,ESE,3.5,-,N/A,,Clear,110,2013-05-14 19:55:00
3:15 PM,-9999,-9999,N/A,29.71,10.0,East,6.9,-,N/A,,Clear,100,2013-05-14 20:15:00
3:35 PM,-9999,-9999,N/A,29.68,10.0,ESE,10.4,-,N/A,,Clear,120,2013-05-14 20:35:00
3:55 PM,-9999,-9999,N/A,29.67,10.0,East,10.4,-,N/A,,Clear,100,2013-05-14 20:55:00
4:15 PM,88.0,44.4,22,29.65,10.0,SSE,10.4,17.3,N/A,,Clear,150,2013-05-14 21:15:00
4:35 PM,88.2,42.6,20,29.64,10.0,South,12.7,18.4,N/A,,Clear,180,2013-05-14 21:35:00
4:55 PM,88.7,42.6,20,29.63,10.0,SSW,17.3,20.7,N/A,,Clear,200,2013-05-14 21:55:00
5:15 PM,88.7,43.5,21,29.62,10.0,South,17.3,23.0,N/A,,Clear,180,2013-05-14 22:15:00
5:35 PM,88.7,42.6,20,29.62,10.0,SSW,15.0,24.2,N/A,,Clear,200,2013-05-14 22:35:00
5:55 PM,87.1,38.3,18,29.61,10.0,SSW,16.1,20.7,N/A,,Clear,200,2013-05-14 22:55:00
6:15 PM,86.7,39.9,19,29.61,10.0,South,11.5,-,N/A,,Clear,190,2013-05-14 23:15:00
6:35 PM,-9999,-9999,N/A,29.62,10.0,South,8.1,-,N/A,,Clear,190,2013-05-14 23:35:00
6:55 PM,86.0,37.8,18,29.61,10.0,SSW,13.8,-,N/A,,Mostly Cloudy,210,2013-05-14 23:55:00
7:15 PM,85.8,37.0,18,29.63,10.0,WSW,5.8,-,N/A,,Mostly Cloudy,240,2013-05-15 00:15:00
7:35 PM,81.0,44.6,28,29.65,10.0,NNW,4.6,-,N/A,,Overcast,340,2013-05-15 00:35:00
7:55 PM,73.4,58.3,59,29.69,10.0,North,9.2,-,N/A,,Overcast,360,2013-05-15 00:55:00
8:15 PM,75.4,54.3,48,29.60,5.0,SE,15.0,-,0.06,,Overcast,140,2013-05-15 01:15:00
8:35 PM,76.1,52.2,43,29.60,10.0,South,9.2,-,0.06,,Scattered Clouds,180,2013-05-15 01:35:00
8:55 PM,80.1,45.3,29,29.60,10.0,South,15.0,20.7,0.06,,Scattered Clouds,180,2013-05-15 01:55:00
9:15 PM,81.3,46.0,29,29.60,10.0,South,16.1,25.3,N/A,,Clear,190,2013-05-15 02:15:00
9:35 PM,81.1,47.8,31,29.58,10.0,South,12.7,-,N/A,,Clear,190,2013-05-15 02:35:00
9:55 PM,80.2,49.6,34,29.60,10.0,SSW,9.2,-,N/A,,Clear,210,2013-05-15 02:55:00
10:15 PM,79.9,54.0,41,29.59,10.0,SSW,15.0,19.6,N/A,,Clear,210,2013-05-15 03:15:00
10:35 PM,80.6,55.0,41,29.58,10.0,SSW,12.7,18.4,N/A,,Clear,210,2013-05-15 03:35:00
10:55 PM,80.2,55.2,42,29.58,10.0,SW,10.4,-,N/A,,Clear,220,2013-05-15 03:55:00
11:15 PM,79.7,55.2,43,29.58,10.0,SW,11.5,17.3,N/A,,Clear,230,2013-05-15 04:15:00
11:35 PM,79.0,55.0,44,29.58,10.0,SW,12.7,18.4,N/A,,Clear,220,2013-05-15 04:35:00
11:55 PM,79.0,54.7,43,29.58,10.0,SW,13.8,-,N/A,,Clear,230,2013-05-15 04:55:00